{"data":{"norad_id":51794,"intl_designator":"2022-017AC","name":"STARLINK-3573","alt_names":[],"object_type":"PAYLOAD","status":"ACTIVE","operator":null,"country":"US","launch_date":"2022-02-25","launch_site_code":"AFWTR","launch_vehicle":null,"mission":null,"orbit_class":"UNKNOWN","rcs_meters":null,"size_class":null,"mass_kg":null,"dimensions":null,"purposes":["comms"],"wikipedia_slug":null,"has_3d_model":false,"image_url":null,"decayed_at":null,"tle_current":{"epoch":"2026-05-25T06:00:02.000160Z","epoch_age_seconds":47360,"freshness":"FRESH","line1":"1 51794U 22017AC  26145.25002315  .00875691  00000+0  12754-1 0  9999","line2":"2 51794  53.2176 358.9146 0001188  78.1881 289.4116 15.52961906  5784","mean_motion":15.52961906,"eccentricity":0.0001188,"inclination_deg":53.2176,"raan_deg":358.9146,"arg_perigee_deg":78.1881,"mean_anomaly_deg":289.4116,"bstar":0.012754,"rev_number":578,"period_min":92.726034968175,"perigee_km":407.27739251379,"apogee_km":408.88979852729,"semimajor_km":6786.2205955205,"source":"CELESTRAK","updated_at":"2026-05-25T13:38:16.955319Z"}}}